Current Weather Conditions: station 63106

sailwx.info

Last reported at 2019-Sep-02 22:03 UTC.
Time now 2019-Dec-11 17:35 UTC

Location: N 61°00' E 001°42'.
View on Google Maps.

See reports from other nearby stations

  
Tides and Currents Weather Stations Pressure Air Temp Water Temp Dewpoint Dewpoint Depression Visibility Wind Speed Wind Dir Waves Ship Positions
date/time (UTC)wind fromknots sea level pressurealtimeterstation pressurevisibilityair tempwater tempwave heightnotes
2019-Dec-11 16:00 200 40 10.8 7.0 7.1
2019-Dec-11 15:00 200 39 10.8 7.1 7.0
2019-Dec-11 14:00 210 38 10.8 6.8 6.6
2019-Dec-11 13:00 210 39 10.8 7.0 5.9
2019-Dec-11 12:00 200 36 10.8 6.8 7.0
2019-Dec-11 11:00 210 39 5.4 6.7 6.2
2019-Dec-11 10:00 210 34 10.8 7.3 5.9
2019-Dec-11 09:00 210 36 10.8 7.2 5.7
2019-Dec-11 08:00 230 34 5.4 5.4 6.2
2019-Dec-11 07:00 220 34 5.4 6.6 6.7
2019-Dec-11 06:00 220 33 10.8 6.7 6.2
2019-Dec-11 05:00 230 31 10.8 6.7 6.1
2019-Dec-11 04:00 220 34 10.8 5.6 5.8
2019-Dec-11 03:00 230 32 5.4 7.2 5.8
2019-Dec-11 02:00 240 31 10.8 7.8 5.2
2019-Dec-11 01:00 240 32 10.8 7.6 6.3
2019-Dec-11 00:00 230 27 5.4 7.2 6.1
2019-Dec-10 23:00 230 32 10.8 7.6 5.8
2019-Dec-10 22:00 230 25 10.8 7.6 6.4
2019-Dec-10 21:00 10.8 6.8 6.6
2019-Dec-10 20:00 250 25 2.2 7.0 7.3
2019-Dec-10 19:00 210 31 2.2 8.4 7.1
2019-Dec-10 18:00 190 34 0.5 8.2 8.0
2019-Dec-10 17:00 180 34 0.3 8.1 7.5
2019-Dec-10 16:00 180 38 0.3 7.8 7.8
2019-Dec-10 15:00 170 39 0.5 7.4 7.2
2019-Dec-10 14:00 170 40 0.5 7.2 6.8
2019-Dec-10 13:00 170 40 0.5 6.8 7.2
2019-Dec-10 12:00 170 41 1.1 6.5 5.9
2019-Dec-10 11:00 160 41 1.1 6.6 5.3
2019-Dec-10 10:00 160 40 1.1 6.7 4.8
2019-Dec-10 09:00 170 39 5.4 7.2 4.4
2019-Dec-10 08:00 170 38 2.2 7.1 3.9
2019-Dec-10 07:00 170 34 10.8 6.4 3.5
2019-Dec-10 06:00 170 31 5.4 5.4 3.2
2019-Dec-10 05:00 170 28 5.4 4.6 3.4
2019-Dec-10 04:00 170 22 10.8 5.2 3.4
2019-Dec-10 03:00 180 20 10.8 4.9 3.5
2019-Dec-10 02:00 180 14 10.8 4.6 4.0
2019-Dec-10 01:00 200 11 10.8 4.4 4.3
2019-Dec-10 00:00 160 5 10.8 4.6 4.4
2019-Dec-09 23:00 030 1 27.0 4.9 4.6
2019-Dec-09 22:00 010 5 27.0 5.2 4.5
2019-Dec-09 21:00 320 7 27.0 4.4 5.2
2019-Dec-09 20:00 340 8 10.8 4.3 4.9
2019-Dec-09 19:00 350 9 27.0 4.2 5.0
2019-Dec-09 18:00 340 17 10.8 3.9 5.5
2019-Dec-09 17:00 340 20 10.8 3.9 5.5